TimeCST,TemperatureF,Dew PointF,Humidity,Sea Level PressureIn,VisibilityMPH,Wind Direction,Wind SpeedMPH,Gust SpeedMPH,PrecipitationIn,Events,Conditions,WindDirDegrees,DateUTC
12:53 AM,30.0,24.1,79,30.01,10.0,SSE,6.9,-,N/A,,Clear,160,2013-02-17 06:53:00
1:53 AM,28.9,24.1,82,29.99,10.0,SSE,5.8,-,N/A,,Clear,150,2013-02-17 07:53:00
2:53 AM,28.9,24.1,82,29.98,10.0,SSE,3.5,-,N/A,,Clear,150,2013-02-17 08:53:00
3:53 AM,28.0,24.1,85,29.97,10.0,South,5.8,-,N/A,,Clear,180,2013-02-17 09:53:00
4:53 AM,28.9,25.0,85,29.96,10.0,South,6.9,-,N/A,,Clear,190,2013-02-17 10:53:00
5:53 AM,28.0,24.1,85,29.96,10.0,SSW,8.1,-,N/A,,Clear,200,2013-02-17 11:53:00
6:53 AM,26.1,21.9,84,29.95,10.0,South,3.5,-,N/A,,Clear,180,2013-02-17 12:53:00
7:53 AM,27.0,21.9,81,29.94,8.0,South,4.6,-,N/A,,Clear,170,2013-02-17 13:53:00
8:53 AM,33.1,27.0,78,29.93,10.0,South,3.5,-,N/A,,Clear,180,2013-02-17 14:53:00
9:53 AM,42.1,30.0,62,29.91,10.0,South,9.2,-,N/A,,Clear,190,2013-02-17 15:53:00
10:53 AM,48.0,30.9,52,29.89,10.0,SSE,6.9,-,N/A,,Clear,150,2013-02-17 16:53:00
11:53 AM,57.0,33.1,40,29.85,10.0,South,8.1,-,N/A,,Clear,180,2013-02-17 17:53:00
12:53 PM,64.9,30.0,27,29.79,10.0,South,9.2,-,N/A,,Clear,180,2013-02-17 18:53:00
1:53 PM,69.1,28.0,22,29.74,10.0,South,13.8,20.7,N/A,,Clear,180,2013-02-17 19:53:00
2:53 PM,69.1,26.1,20,29.69,10.0,South,13.8,25.3,N/A,,Clear,180,2013-02-17 20:53:00
3:53 PM,69.1,27.0,21,29.66,10.0,South,19.6,26.5,N/A,,Clear,170,2013-02-17 21:53:00
4:53 PM,66.0,28.0,24,29.64,10.0,South,12.7,-,N/A,,Clear,170,2013-02-17 22:53:00
5:53 PM,61.0,28.9,30,29.64,10.0,SSE,13.8,-,N/A,,Clear,160,2013-02-17 23:53:00
6:53 PM,53.1,30.0,41,29.63,10.0,SSE,9.2,-,N/A,,Clear,160,2013-02-18 00:53:00
7:53 PM,55.0,28.9,37,29.62,10.0,South,11.5,-,N/A,,Clear,170,2013-02-18 01:53:00
8:53 PM,55.9,28.0,34,29.59,10.0,South,12.7,-,N/A,,Clear,180,2013-02-18 02:53:00
9:53 PM,53.1,28.9,40,29.58,10.0,South,13.8,-,N/A,,Clear,170,2013-02-18 03:53:00
11:53 PM,53.1,28.0,38,29.51,10.0,South,13.8,-,N/A,,Clear,170,2013-02-18 05:53:00